Regional Weather Roundup
Issued by NWS New Orleans/Baton Rouge, LA

Home | Current Version | Previous Version | Text Only | Print | Product List | Glossary On
Versions: 1 2 3 4 5 6 7 8 9 10 11 12 13 14 15 16 17 18 19 20 21 22 23 24 25 26 27 28 29 30 31 32 33 34 35 36 37 38 39 40 41 42 43 44 45 46 47 48 49 50
910
ASUS44 KLIX 292007
RWRLIX
NEW ORLEANS REGIONAL WEATHER ROUNDUP
NATIONAL WEATHER SERVICE NEW ORLEANS LA
300 PM CDT SUN MAR 29 2015

NOTE: "FAIR" INDICATES FEW OR NO CLOUDS BELOW 12,000 FEET WITH NO
      SIGNIFICANT WEATHER AND/OR OBSTRUCTIONS TO VISIBILITY.
      SKY/WX - SKY CONDITION AND SIGNIFICANT WEATHER.
      TMP - AIR TEMPERATURE.     DP    - DEWPOINT TEMPERATURE.
      RH  - RELATIVE HUMIDITY.   PRES  - PRESSURE.
      HI  - HEAT INDEX.          WCI   - WIND CHILL INDEX.

*  THESE STATIONS ARE NOT NWS OR FAA STATIONS AND ARE NOT UNDER
   NWS QUALITY CONTROL.

LAZ038-040-048-061>063-065>067-069-292100-
SOUTHEAST LOUISIANA

CITY           SKY/WX    TMP DP  RH WIND       PRES   REMARKS
N.O. AUDUBON     N/A     76  64  65 MISG        N/A
N.O. INTL ARPT MOSUNNY   76  61  59 S12       30.22F
N.O. LAKEFRONT PTSUNNY   78  60  53 SE15      30.23F
SLIDELL        MOSUNNY   73  59  61 SE14      30.23F
BATON ROUGE    PTSUNNY   78  58  49 S14G23    30.18F
BOOTHVILLE     SUNNY     73  61  65 S15G23    30.26F
BELLE CHASSE   PTSUNNY   73  59  61 S12       30.23F
BOGALUSA*        N/A     78  55  45 S12G17    30.23F
GALLIANO*      MOCLDY    77  62  59 S8G17     30.24F
NEW ROADS*     MOCLDY    79  58  48 S17       30.18F
GONZALES*        N/A     79  58  48 S10       30.19F
HAMMOND*       MOSUNNY   77  57  50 S12G18    30.23F
HOUMA*         MOSUNNY   77  63  61 S12       30.23F
PORT FOURCHON* CLEAR     73  64  73 SE14      30.27F

$$

MSZ070-080>082-292100-
SOUTHERN MISSISSIPPI

CITY           SKY/WX    TMP DP  RH WIND       PRES   REMARKS
MCCOMB         PTSUNNY   75  56  51 S16       30.20F
GULFPORT       PTSUNNY   68  57  68 SE14      30.27F
BILOXI         PTSUNNY   68  57  68 SE16      30.27F
PASCAGOULA     PTSUNNY   67  55  65 SE12G25   30.28F
STENNIS ARPT*  PTSUNNY   70  54  56 SE14G21   30.27F

$$

COASTAL OBSERVATIONS
LAKE AND NEARSHORE STATIONS

STATION/POSITION TIME  TEMP    WIND        PRES    WAVE
                       AIR SEA DIR/SP/G            HT/PER
                 (UTC) (F)     (DEG/KT/KT) (MB)    (FT/S)
PASCAGOULA       1900   67     130/  9/ 15 1025.7
WAVELAND YACHT   1900   65 65  140/ 13/ 15 1025.3
GRAND ISLE       1900          130/  5/ 16   N/A
SOUTHWEST PASS   1900   72 54  140/ 13/ 16 1025.4
NEW CANAL        1900   74     200/ 10/ 13 1024.6
SHELL BEACH      1900   69 68  140/ 16/ 22 1024.7

OFFSHORE STATIONS

STATION/POSITION TIME  TEMP    WIND        PRES    WAVE
                       AIR SEA DIR/SP/G            HT/PER
                 (UTC) (F)     (DEG/KT/KT) (MB)    (FT/S)
64 S DAUPHIN ISL 1950   68 72  150/ 14/ 16 1025.8    2/ 5

$$




USA.gov is the U.S. government's official web portal to all federal, state and local government web resources and services.